Flag for Saint Lucia Weather past 2 weeks in Vieux Fort, Saint Lucia

Now
82 °F

Passing clouds.


Feels Like: 91 °F
Forecast: 82 / 88 °F
Wind: 21 mph from East

Location: Hewanorra International Airport

Current Time: Aug 30, 2015 at 2:41:02 AM

Latest Report: Aug 30, 2015 at 2:00 AM


Visibility: N/A

Pressure: 29.92 "Hg

Humidity: 84%

Dew point: 77 °F

Location of Vieux FortLocation

Historic Weather in Vieux Fort — Graph

°F

Vieux Fort temperature yesterday

Maximum temperature yesterday: 99 °F (at 7:00 AM)
Minimum temperature yesterday: 81 °F (at 12:00 AM)
Average temperature yesterday: 85 °F

Past Weeks' High & Low Weather Summary

 TemperatureHumidityPressure
High99 °F (Aug 29, 7:00 AM)94% (Aug 19, 4:00 PM)30.04 "Hg (Aug 19, 4:00 PM)
Low75 °F (Aug 24, 5:00 AM)50% (Aug 29, 7:00 AM)26.61 "Hg (Aug 29, 1:00 AM)
Average84 °F77%29.92 "Hg
* Reported Aug 15 1:00 AM — Aug 30 1:00 AM, Vieux Fort, Weather by CustomWeather, © 2015

Note: Actual official high and low records may vary slightly from our data, if they occured in-between our weather recording intervals... More about our weather records

Advertising

Vieux Fort weather history for previous 24 hours

 ConditionsComfort  
Time TempWeatherWind HumidityBarometerVisibility
1:00 AM
Sun, Aug 30
82 °FPartly cloudy.21 mph84%29.95 "HgN/A
12:00 AM82 °FPartly cloudy.18 mph84%29.95 "HgN/A
11:00 PM
Sat, Aug 29
84 °FPartly cloudy.16 mph84%29.98 "HgN/A
10:00 PM84 °FPartly cloudy.21 mph79%29.98 "HgN/A
9:00 PM82 °FPartly cloudy.23 mph84%29.95 "HgN/A
8:00 PM82 °FPartly cloudy.17 mph89%29.95 "HgN/A
7:00 PM82 °FPartly cloudy.17 mph89%29.92 "HgN/A
6:00 PM84 °FBroken clouds.17 mph84%29.92 "HgN/A
5:00 PM86 °FBroken clouds.17 mph79%29.92 "HgN/A
4:00 PM88 °FBroken clouds.17 mph75%29.92 "HgN/A
2:00 PM86 °FBroken clouds.16 mph79%29.92 "HgN/A
1:00 PM84 °FBroken clouds.17 mph89%29.98 "HgN/A
12:00 PM88 °FBroken clouds.18 mph75%29.98 "HgN/A
11:00 AM86 °FBroken clouds.16 mph79%29.98 "HgN/A
10:00 AM86 °FBroken clouds.21 mph79%29.98 "HgN/A
9:00 AM84 °FBroken clouds.17 mph84%29.98 "HgN/A
8:00 AM84 °FScattered showers. Broken clouds.18 mph79%29.95 "Hg5 mi
7:00 AM99 °FSprinkles. Broken clouds.21 mph50%29.95 "HgN/A
6:00 AM81 °FScattered clouds.20 mph84%29.92 "HgN/A
5:00 AM82 °FPassing clouds.20 mph84%29.92 "HgN/A
4:00 AM82 °FPassing clouds.18 mph84%29.92 "HgN/A
3:00 AM82 °FPassing clouds.20 mph84%29.92 "HgN/A
2:00 AM82 °FPassing clouds.17 mph79%29.92 "HgN/A
Weather by CustomWeather, © 2015

See weather overviewHow to use our weather pages